DEJRM EDGG-EDDG

Flight info

Callsign DEJRM
Flight time N/A
Altitude
Route
Aircraft F260

Departure

Time N/A
Airport EDGG

Arrival

Time 2026-05-08 17:54
Airport Münster Osnabrück Airport (EDDG)
Time Latitude Longitude Altitude Speed Heading
2026-05-08 17:42 51.92999 7.62532 1844 ft 144 kts 356°
2026-05-08 17:42 51.93978 7.62283 1744 ft 142 kts 354°
2026-05-08 17:42 51.94937 7.62088 1627 ft 139 kts
2026-05-08 17:42 51.95921 7.62120 1438 ft 142 kts
2026-05-08 17:43 51.96871 7.62220 1425 ft 133 kts
2026-05-08 17:43 51.97769 7.62387 1403 ft 127 kts 12°
2026-05-08 17:43 51.98634 7.62524 1412 ft 123 kts
2026-05-08 17:43 51.99464 7.62587 1465 ft 118 kts
2026-05-08 17:44 52.00277 7.62646 1487 ft 116 kts
2026-05-08 17:44 52.01098 7.62777 1436 ft 120 kts 12°
2026-05-08 17:44 52.01932 7.62922 1385 ft 123 kts 11°
2026-05-08 17:44 52.02799 7.63045 1338 ft 125 kts
2026-05-08 17:45 52.03660 7.62800 1296 ft 128 kts 347°
2026-05-08 17:45 52.04488 7.62277 1275 ft 127 kts 340°
2026-05-08 17:45 52.05295 7.61687 1260 ft 125 kts 342°
2026-05-08 17:45 52.06120 7.61281 1241 ft 123 kts 350°
2026-05-08 17:46 52.06960 7.61006 1228 ft 123 kts 356°
2026-05-08 17:46 52.07798 7.60891 1214 ft 123 kts
2026-05-08 17:46 52.08662 7.60886 1204 ft 123 kts
2026-05-08 17:46 52.09487 7.60926 1267 ft 112 kts
2026-05-08 17:47 52.10220 7.61003 1300 ft 100 kts 10°
2026-05-08 17:47 52.10889 7.61118 1269 ft 93 kts 13°
2026-05-08 17:47 52.11496 7.61422 1166 ft 88 kts 34°
2026-05-08 17:47 52.11807 7.61820 1028 ft 91 kts 49°
2026-05-08 17:48 52.12319 7.62987 760 ft 94 kts 69°
2026-05-08 17:48 52.12511 7.63997 657 ft 92 kts 72°
2026-05-08 17:48 52.12731 7.64958 531 ft 87 kts 67°
2026-05-08 17:48 52.12901 7.65851 374 ft 82 kts 72°
2026-05-08 17:49 52.13088 7.66713 237 ft 79 kts 67°
2026-05-08 17:49 52.13247 7.67464 158 ft 53 kts 68°
2026-05-08 17:49 52.13378 7.68044 163 ft 76 kts 71°
2026-05-08 17:49 52.13556 7.68947 402 ft 88 kts 66°
2026-05-08 17:50 52.13889 7.69808 730 ft 101 kts 45°
2026-05-08 17:50 52.14572 7.70207 977 ft 111 kts 358°
2026-05-08 17:50 52.15293 7.69762 1063 ft 112 kts 339°
2026-05-08 17:50 52.16001 7.69186 1089 ft 115 kts 320°
2026-05-08 17:51 52.16293 7.68001 1108 ft 117 kts 265°
2026-05-08 17:51 52.16134 7.66684 1094 ft 121 kts 255°
2026-05-08 17:51 52.15950 7.65324 1081 ft 124 kts 257°
2026-05-08 17:51 52.15767 7.64012 1128 ft 113 kts 256°
2026-05-08 17:52 52.15454 7.62940 1109 ft 97 kts 216°
2026-05-08 17:52 52.14849 7.62700 982 ft 88 kts 169°
2026-05-08 17:52 52.13706 7.63153 805 ft 85 kts 147°
2026-05-08 17:53 52.13236 7.63676 736 ft 79 kts 137°
2026-05-08 17:53 52.12813 7.64271 635 ft 81 kts 134°
2026-05-08 17:53 52.12671 7.65088 489 ft 81 kts 70°
2026-05-08 17:53 52.12909 7.65894 368 ft 76 kts 68°
2026-05-08 17:54 52.13073 7.66693 258 ft 73 kts 68°
2026-05-08 17:54 52.13246 7.67454 168 ft 67 kts 65°
2026-05-08 17:54 52.13369 7.68011 160 ft 43 kts 68°
2026-05-08 17:54 52.13526 7.68753 262 ft 82 kts 68°
2026-05-08 17:55 52.13718 7.69688 503 ft 95 kts 72°
2026-05-08 17:55 52.13970 7.70739 806 ft 104 kts 52°
2026-05-08 17:55 52.14671 7.71156 1005 ft 122 kts 352°
2026-05-08 17:55 52.15456 7.70705 1193 ft 117 kts 340°
2026-05-08 17:56 52.15983 7.69685 1176 ft 124 kts 285°
2026-05-08 17:56 52.15886 7.68336 1198 ft 120 kts 252°
2026-05-08 17:56 52.15664 7.67024 1204 ft 120 kts 252°
2026-05-08 17:56 52.15472 7.65702 1209 ft 118 kts 256°
2026-05-08 17:57 52.15294 7.64466 1267 ft 102 kts 253°
2026-05-08 17:57 52.15057 7.63432 1199 ft 98 kts 227°
2026-05-08 17:57 52.14496 7.63000 1023 ft 88 kts 174°
2026-05-08 17:57 52.13905 7.63172 857 ft 86 kts 161°
2026-05-08 17:58 52.13350 7.63447 774 ft 82 kts 153°
2026-05-08 17:58 52.12837 7.63857 683 ft 81 kts 143°
2026-05-08 17:58 52.12563 7.64561 588 ft 74 kts 82°
2026-05-08 17:58 52.12786 7.65308 483 ft 73 kts 63°
2026-05-08 17:59 52.12949 7.66099 374 ft 75 kts 69°
2026-05-08 17:59 52.13122 7.66903 258 ft 75 kts 67°
2026-05-08 17:59 52.13294 7.67687 221 ft 75 kts 63°
2026-05-08 17:59 52.13485 7.68515 463 ft 86 kts 67°
2026-05-08 18:00 52.13732 7.69472 720 ft 99 kts 59°
2026-05-08 18:00 52.15001 7.69606 1156 ft 112 kts 330°
2026-05-08 18:00 52.15519 7.68626 1142 ft 120 kts 284°
2026-05-08 18:01 52.15391 7.67328 1176 ft 119 kts 248°
2026-05-08 18:01 52.15106 7.66069 1212 ft 118 kts 246°
2026-05-08 18:01 52.14869 7.64776 1223 ft 120 kts 253°
2026-05-08 18:01 52.14687 7.63441 1252 ft 120 kts 255°
2026-05-08 18:02 52.14502 7.62095 1254 ft 122 kts 256°
2026-05-08 18:02 52.14366 7.61221 1300 ft 119 kts 255°
2026-05-08 18:02 52.14111 7.59478 1330 ft 119 kts 255°
2026-05-08 18:02 52.13959 7.58154 1337 ft 121 kts 258°
2026-05-08 18:03 52.13765 7.56803 1344 ft 121 kts 252°
2026-05-08 18:03 52.13513 7.55491 1370 ft 120 kts 254°
2026-05-08 18:03 52.13644 7.54230 1395 ft 116 kts 311°
2026-05-08 18:03 52.14345 7.53791 1349 ft 111 kts 13°
2026-05-08 18:04 52.14911 7.54495 1326 ft 104 kts 72°
2026-05-08 18:04 52.14817 7.55607 1295 ft 105 kts 123°
2026-05-08 18:04 52.14181 7.56135 1281 ft 111 kts 175°
2026-05-08 18:04 52.13477 7.55621 1278 ft 117 kts 225°
2026-05-08 18:05 52.13277 7.54359 1260 ft 121 kts 284°
2026-05-08 18:05 52.13789 7.53366 1262 ft 114 kts 342°
2026-05-08 18:05 52.14479 7.53573 1249 ft 104 kts 50°
2026-05-08 18:05 52.14652 7.54660 1251 ft 99 kts 101°
2026-05-08 18:06 52.14294 7.55628 1219 ft 104 kts 127°
2026-05-08 18:06 52.13814 7.56524 1204 ft 105 kts 130°
2026-05-08 18:06 52.13297 7.57354 1210 ft 105 kts 135°
2026-05-08 18:06 52.12774 7.58131 1236 ft 95 kts 133°
2026-05-08 18:07 52.12315 7.58841 1225 ft 88 kts 133°
2026-05-08 18:07 52.11879 7.59529 1127 ft 88 kts 124°
2026-05-08 18:07 52.11746 7.60467 1013 ft 88 kts 81°
2026-05-08 18:07 52.11961 7.61425 912 ft 92 kts 66°
2026-05-08 18:08 52.12217 7.62394 839 ft 91 kts 69°
2026-05-08 18:08 52.12384 7.63377 733 ft 91 kts 75°
2026-05-08 18:08 52.12588 7.64333 620 ft 87 kts 65°
2026-05-08 18:08 52.12781 7.65237 486 ft 82 kts 72°
2026-05-08 18:09 52.12956 7.66096 344 ft 80 kts 69°
2026-05-08 18:09 52.13134 7.66938 220 ft 78 kts 68°
2026-05-08 18:09 52.13302 7.67706 159 ft 57 kts 74°
2026-05-08 18:09 52.13392 7.68151 160 ft 21 kts 89°
2026-05-08 18:10 52.13309 7.68294 161 ft 6 kts 154°
2026-05-08 18:10 52.13292 7.68305 161 ft 0 kts 158°
2026-05-08 18:10 52.13277 7.68313 161 ft 6 kts 160°
2026-05-08 18:11 52.13210 7.68349 161 ft 11 kts 165°
2026-05-08 18:11 52.13160 7.68360 161 ft 7 kts 216°
2026-05-08 18:11 52.13153 7.68288 161 ft 0 kts 263°
2026-05-08 18:11 52.13123 7.68267 161 ft 6 kts 253°
2026-05-08 18:12 52.13123 7.68228 160 ft 0 kts 270°